Theta_e
349 349 348 346 344 342 341 338 339 338 337 337 336 333 331 331 333 337 337 341 343 343 345 342 339 344 343 340 338 340 340 334 332 334 334 333 336 337 342 341 342 342 337
349 348 348 346 344 342 338 339 336 336 336 337 335 333 332 336 340 339 338 342 340 342 345 342 328 329 333 327 327 329 329 326 326 331 331 327 328 331 342 346 343 328 336
350 347 347 346 340 338 338 336 331 329 332 334 335 340 340 341 339 339 341 343 343 342 335 332 323 325 329 337 341 337 334 338 340 342 344 342 341 335 337 336 335 334 330
349 347 346 343 337 337 331 329 328 334 334 336 337 336 338 341 344 341 342 342 343 334 328 325 332 341 337 340 341 337 329 344 345 345 346 345 345 332 327 326 327 327 333
348 347 345 341 338 336 331 334 333 335 338 338 337 335 334 338 341 342 343 343 339 329 326 330 329 331 331 335 335 334 336 341 343 344 347 346 345 335 327 336 338 340 341
347 347 345 341 341 337 331 334 336 338 333 331 331 332 332 331 329 336 340 341 332 334 328 328 334 335 336 338 337 333 342 344 344 342 344 345 344 337 328 337 339 336 331
347 346 343 342 340 334 331 332 337 335 333 335 335 337 338 339 337 332 326 333 341 335 329 333 334 338 339 339 338 336 341 344 346 343 343 344 328 328 325 325 326 328 327
346 345 346 343 334 332 332 332 335 338 334 334 329 329 331 333 335 335 336 327 334 342 334 338 341 339 339 339 338 337 341 345 342 342 346 340 329 327 324 328 329 332 336
344 344 345 342 334 330 332 332 337 340 335 329 329 329 331 333 338 333 334 335 329 332 333 336 339 338 339 338 338 339 340 343 344 342 342 347 327 326 327 326 325 334 339
345 344 343 341 335 335 333 330 332 331 329 330 330 329 331 337 339 344 338 334 333 331 330 334 334 335 338 338 339 340 343 348 348 346 344 335 330 326 327 326 327 327 329
344 343 342 340 336 334 332 335 332 333 331 330 332 329 346 345 349 348 335 334 333 333 331 330 331 334 335 338 339 336 348 350 344 344 349 341 335 328 325 328 325 326 330
346 346 345 342 336 335 333 334 333 341 345 335 348 339 349 348 344 347 345 343 344 339 345 340 337 327 331 344 347 339 347 345 347 342 348 341 341 337 332 328 326 325 324
344 342 341 337 340 335 334 333 333 342 343 343 345 348 347 348 345 348 347 349 348 347 349 349 346 348 343 342 344 345 347 342 347 348 349 345 343 343 342 337 333 329 328
346 347 346 343 344 341 334 342 338 335 338 349 347 333 343 346 346 343 348 348 347 348 344 343 347 346 344 343 342 344 345 346 347 346 349 349 342 345 344 344 341 337 335
345 345 347 345 346 350 349 347 346 344 340 348 343 339 335 338 349 349 350 348 348 347 351 348 349 347 346 345 342 340 340 344 345 347 348 350 347 344 344 344 344 344 342
346 347 346 347 348 348 350 350 347 345 343 344 350 353 342 336 343 344 347 350 350 349 344 342 344 345 346 345 344 343 342 341 343 346 347 348 348 346 343 343 343 344 344
347 347 349 349 349 349 350 350 351 351 349 349 349 351 349 338 341 338 339 337 340 352 349 344 342 351 349 347 347 347 345 343 341 345 348 347 347 346 344 344 344 342 344
345 347 348 348 350 351 351 351 350 349 349 349 349 349 352 352 346 349 350 352 351 345 342 339 341 343 341 345 347 340 341 344 344 344 347 347 348 345 344 344 344 344 341
346 348 349 349 349 351 351 352 353 353 351 349 348 348 349 351 351 351 351 351 351 351 351 346 344 345 348 347 348 348 348 346 344 343 345 346 347 345 344 343 345 345 345
347 349 350 350 350 351 352 351 353 353 353 353 352 351 350 351 351 350 352 351 353 348 349 348 349 349 344 345 346 347 345 344 346 345 345 345 344 345 345 345 346 346 346
345 348 350 350 351 351 351 351 351 351 352 351 351 352 354 353 352 353 353 351 351 350 350 350 348 346 346 348 351 351 349 346 346 344 346 347 347 347 347 347 346 347 346
348 349 349 349 343 338 351 351 351 351 351 351 352 354 356 356 356 356 352 352 352 352 351 352 350 350 351 350 350 349 350 348 346 346 346 348 348 348 348 348 346 347 348
349 351 353 340 342 342 345 351 352 349 350 351 354 355 354 356 354 352 353 353 350 348 354 351 351 351 352 349 349 349 349 345 346 345 347 347 347 348 348 349 349 347 349
350 351 353 352 345 344 345 351 352 353 352 352 353 353 355 351 349 350 350 352 351 350 349 348 350 352 352 352 350 349 348 347 346 343 344 344 347 349 350 348 347 346 350
350 351 353 355 351 349 346 348 355 355 353 349 348 350 349 346 347 346 349 350 350 348 351 343 344 348 350 350 351 351 350 351 350 346 346 344 344 345 345 348 348 350 349
350 351 353 356 353 350 345 344 343 350 355 349 348 344 345 342 341 346 351 353 344 344 346 347 346 348 348 346 348 349 349 350 350 349 349 348 350 347 345 343 345 346 347
Wind_Speed
18 21 24 25 27 30 31 31 28 28 27 27 28 27 23 20 20 20 20 19 17 19 20 19 18 16 16 15 16 18 16 17 16 16 15 16 17 18 19 19 15 9 11
19 21 24 28 28 30 32 28 25 26 26 27 26 23 19 17 17 18 18 17 17 17 17 16 18 15 14 14 16 17 16 17 19 18 16 16 15 14 14 16 14 11 11
19 21 23 27 31 31 29 26 29 30 30 27 25 20 18 17 17 18 15 16 16 16 15 15 17 18 17 17 16 15 17 25 24 21 20 12 13 14 14 11 9 12 11
19 22 24 31 29 27 28 29 30 28 25 23 20 19 18 17 18 16 14 14 15 14 15 16 17 17 17 15 14 14 17 19 16 13 12 12 8 12 12 11 10 10 10
19 21 26 29 31 28 29 28 27 24 23 22 21 20 18 17 17 15 15 14 12 13 15 16 17 17 17 15 13 13 19 21 19 15 12 12 7 8 11 12 11 10 12
20 22 25 28 27 29 27 25 25 23 24 24 23 21 19 18 17 15 15 12 12 13 15 15 17 16 15 13 12 13 17 17 16 10 13 8 8 7 8 11 7 6 6
23 25 27 26 25 25 24 22 21 23 23 22 20 19 18 17 17 16 14 12 13 12 15 15 13 11 11 11 10 11 13 15 12 9 8 6 6 6 6 6 8 7 6
26 24 21 28 29 21 22 20 19 19 18 17 17 17 15 16 15 14 14 13 11 11 13 11 10 9 9 9 10 11 12 13 10 8 7 4 6 6 6 6 5 6 7
22 23 23 26 31 22 25 18 16 17 16 14 13 13 14 14 14 14 13 12 10 7 7 8 7 7 6 7 9 11 13 15 10 7 6 3 7 5 5 5 4 3 4
22 21 22 23 33 31 22 17 17 12 9 6 7 9 10 13 13 13 12 10 9 7 6 5 5 4 5 6 6 9 11 9 5 3 7 4 6 4 3 3 3 2 2
21 25 24 25 28 30 24 23 13 6 4 1 3 8 13 8 6 9 7 8 8 8 7 4 2 2 3 7 6 6 6 3 6 1 3 7 6 5 4 3 1 1 1
17 21 22 24 27 23 23 15 14 7 1 3 4 10 5 2 6 4 9 11 10 10 9 10 10 3 2 3 4 2 8 4 3 2 5 7 6 5 5 4 3 1 1
20 20 19 23 18 22 20 16 13 8 8 2 3 5 4 3 3 3 6 8 8 8 7 8 10 6 2 4 2 6 5 4 5 6 7 10 8 5 5 4 4 4 3
19 18 18 17 19 15 18 15 10 9 3 1 2 4 5 2 5 1 2 2 7 4 6 1 1 5 4 4 6 7 5 7 8 9 7 9 10 7 7 6 4 4 5
20 18 14 16 13 14 11 7 3 3 2 3 6 5 2 1 3 2 3 3 3 3 2 3 4 4 7 5 6 8 9 9 9 9 11 12 12 10 10 7 7 6 6
18 17 16 16 15 17 12 10 12 9 7 6 3 8 10 4 6 4 4 2 6 10 7 4 5 6 7 7 8 9 9 10 10 10 10 14 13 15 14 13 11 11 8
17 16 14 14 14 14 12 9 9 8 7 7 6 8 10 7 8 7 4 6 3 7 11 8 7 6 7 7 9 10 11 13 14 15 11 14 14 17 17 15 15 16 14
16 16 14 13 13 13 11 10 9 8 7 7 7 7 8 9 9 7 7 7 9 8 9 10 10 9 9 10 12 12 11 12 15 14 16 16 16 12 18 19 20 19 19
17 16 15 14 13 12 11 9 8 8 7 8 9 9 10 10 9 9 8 9 15 9 11 10 10 12 12 14 11 12 13 13 14 15 17 18 20 20 18 19 22 23 25
18 17 16 15 15 14 11 11 9 8 8 7 8 8 10 8 9 10 8 11 16 14 12 12 13 13 14 14 15 16 19 17 17 17 18 18 19 21 19 19 20 22 22
18 17 17 16 16 15 14 12 11 9 10 9 9 9 10 10 11 13 11 12 12 14 17 18 18 16 15 14 14 15 17 14 17 19 18 17 18 18 20 21 24 21 19
19 19 18 18 18 16 14 13 12 10 9 10 10 9 11 12 13 14 16 14 14 17 16 18 18 17 17 15 18 17 16 15 17 16 11 13 17 18 20 23 21 24 24
20 20 19 18 17 16 16 13 12 12 12 13 13 8 11 13 13 17 15 17 19 19 19 21 19 20 19 18 20 19 12 16 15 8 13 16 16 18 17 18 19 22 25
21 19 19 18 18 16 14 13 13 11 10 12 13 6 12 13 13 15 16 16 17 19 20 21 21 21 21 20 20 23 25 24 19 19 20 19 18 22 24 23 24 24 23
19 19 19 20 19 18 16 14 12 10 7 5 4 7 10 10 14 12 11 12 15 15 17 20 21 22 24 25 23 23 23 23 23 27 29 32 24 24 28 28 26 22 21
19 19 18 20 19 17 17 14 12 14 10 5 4 4 6 8 9 9 9 11 21 20 18 20 21 22 23 24 26 28 28 27 23 22 25 34 29 27 24 25 27 28 27
Wind_Direction
119 122 125 127 127 127 127 127 124 124 125 125 125 123 118 108 102 103 106 104 100 104 106 105 101 99 96 90 90 94 100 100 104 106 103 101 102 103 99 94 77 106 103
121 125 132 130 129 128 128 127 125 124 122 122 122 120 112 106 103 106 107 100 98 100 99 104 105 106 110 102 103 103 96 93 89 84 86 95 104 112 104 111 135 104 99
127 131 136 132 129 132 130 126 124 121 118 117 116 113 107 104 103 107 104 101 101 103 101 100 96 100 99 98 98 92 93 94 89 86 87 82 99 103 112 123 104 95 102
131 136 136 133 131 129 128 125 124 122 116 114 111 108 104 101 103 108 101 98 103 99 100 103 103 103 101 101 98 97 96 96 85 81 109 89 88 93 97 96 93 90 87
129 136 137 137 135 129 131 122 123 119 114 111 109 105 100 99 97 100 97 97 96 97 102 107 104 101 100 98 97 99 96 87 80 71 98 101 98 89 98 96 85 92 98
125 133 138 140 136 133 137 120 121 115 113 108 102 96 92 85 89 95 95 89 89 98 106 107 107 96 95 89 88 92 98 89 82 79 93 111 130 90 97 114 121 112 117
126 131 138 141 127 132 134 125 121 118 115 105 94 89 84 78 79 80 89 94 92 93 109 108 107 96 93 86 78 83 98 90 88 94 94 102 89 87 87 111 121 113 97
127 130 132 134 130 132 131 128 124 122 118 99 86 78 75 76 76 71 73 86 94 101 111 110 106 100 95 87 82 81 103 102 91 96 95 75 62 80 84 88 93 112 111
128 136 134 135 138 141 132 125 120 117 115 101 76 69 73 67 72 68 71 73 81 95 105 111 107 98 97 91 87 82 91 96 117 101 79 75 18 47 73 81 96 98 88
128 142 140 140 149 142 129 154 126 124 121 101 72 70 68 70 67 67 63 59 64 74 92 115 119 110 96 88 70 84 85 86 121 59 136 354 2 27 41 74 83 98 110
119 126 128 139 148 145 160 142 118 151 175 203 64 76 50 59 61 28 51 50 45 43 48 51 93 132 113 76 35 91 59 358 76 44 194 337 346 11 31 29 66 122 178
129 126 126 144 146 147 150 151 152 151 138 135 86 95 65 97 118 74 20 29 35 26 39 44 25 15 69 292 306 36 3 39 256 348 256 327 358 6 15 18 360 338 249
129 134 138 139 136 149 157 158 165 176 162 160 162 132 225 117 38 27 16 14 4 20 11 15 13 27 272 263 264 285 331 264 305 277 321 321 319 339 355 357 352 337 322
138 137 149 157 155 167 171 175 194 202 156 249 199 200 189 80 17 91 277 38 14 360 341 241 329 245 287 271 270 263 254 275 310 322 287 316 311 311 322 319 328 324 314
137 142 143 150 166 156 177 184 215 257 204 239 274 245 275 118 247 319 268 307 286 254 259 312 298 283 239 281 277 267 264 259 276 286 297 302 311 310 312 300 303 297 295
149 150 160 164 175 169 170 192 215 231 267 298 264 274 298 274 250 227 275 254 282 315 293 278 260 244 262 262 269 271 265 264 260 266 276 289 299 301 308 296 292 291 277
161 161 168 172 180 188 195 218 229 224 243 243 259 256 286 285 292 288 284 281 252 274 309 302 307 294 297 293 275 276 282 276 254 240 257 264 272 288 291 288 296 285 278
170 175 178 176 186 193 203 209 211 230 236 252 257 261 273 285 286 273 286 280 286 288 284 290 298 287 274 265 277 288 255 261 273 263 254 258 260 254 285 287 287 287 281
180 182 185 188 193 200 208 211 228 237 241 241 253 261 265 265 260 267 268 273 282 275 279 282 282 277 277 284 273 273 274 267 266 267 267 264 266 258 255 267 279 280 280
187 192 194 198 198 205 209 223 222 240 252 256 256 260 259 266 268 268 267 268 275 292 284 271 261 267 275 272 270 264 253 255 259 261 265 266 265 270 272 264 265 273 277
192 195 200 203 212 209 218 222 234 237 245 250 263 259 261 267 262 259 262 270 278 284 293 293 280 276 279 276 273 285 283 291 275 261 256 261 265 265 265 262 262 260 259
196 201 205 208 212 218 217 223 222 245 252 263 259 263 264 265 268 271 270 269 266 264 268 271 276 268 273 272 263 272 277 281 277 269 254 257 267 266 264 267 253 260 259
201 203 206 214 219 225 212 236 239 247 257 258 240 266 282 264 282 282 278 275 273 274 270 272 273 272 269 266 262 259 277 277 307 270 252 263 260 253 261 263 256 252 260
205 206 207 216 216 217 216 212 230 236 264 281 318 307 272 292 288 295 293 291 292 289 286 285 278 278 275 271 268 268 263 260 278 267 266 268 268 268 269 267 261 255 249
201 204 207 215 221 219 232 217 233 254 261 286 296 317 331 322 328 327 312 315 311 305 298 304 297 286 281 279 275 273 269 267 260 255 269 267 270 267 266 267 272 268 270
198 200 203 211 216 217 220 232 235 220 225 221 266 319 325 330 320 301 307 311 319 312 308 300 294 295 292 285 280 277 271 269 267 263 258 271 271 279 276 267 261 261 258